Weather in Vinogradnoye

Russia / Republic of Kalmykia     46°13′09″N   41°58′02″E
temp.,
°C
wind,
m/s
gust,
m/s
humid.,
%
clouds,
%
prec.,
mm/h
press.,
hPa
HPBL,
m
8 march, mon
mon800:00−1sw5107016 0.0 1021372
03:00−1wsw512648 0.0 1020567
06:00−1sw511600 0.0 1020432
09:00+2wsw711550 0.0 10191121
12:00+5wsw7105029 0.0 10181449
15:00+6wsw7104918 0.0 10161582
18:00+3wsw486625 0.0 1016213
21:00+1sw4107862 0.0 1017229
9 march, tue
tue900:000sw512820 0.0 1016372
03:000sw5128943 0.0 1015526
06:000sw61386100 0.0 1014597
09:00+2wsw91385100 0.1 1015895
12:00+2w71090100 0.9 1015698
15:00+3w6884100 3.0 1016774
18:00+1w367485 0.3 1016137
21:000w487460 0.3 1018185
10 march, wed
wed1000:00−1w5107434 0.0 1020353
03:00−2wnw378247 0.0 1021249
06:00−2nw367978 0.0 1022395
09:00−1nw455872 0.0 10241080
12:00+1nnw444697 0.0 10241415
15:00+1nnw344198 0.0 10241469
18:00−1nne3553100 0.0 1023157
21:00−2ene4860100 0.0 1024394
11 march, thu
thu1100:00−3ene5861100 0.0 1023583
03:00−3ene5853100 0.0 1023652
06:00−3ene6851100 0.0 1024863
09:00−3ene7946100 0.0 1025948
12:00−1ene7841100 0.0 10251100
15:00−1ene6741100 0.0 10251368
18:00−3e474989 0.0 1027394
21:00−4ne584982 0.0 1029551
12 march, fri
fri1200:00−6e574321 0.0 1030744
03:00−6e564211 0.0 1031671
06:00−7e46440 0.0 1032666
09:00−6ese56390 0.0 1032689
12:00−3ese44290 0.0 10311148
15:00−1ese45250 0.0 10291213
18:00−3e47350 0.0 1029281
21:00−4se712365 0.0 1028584